Regional Weather Roundup
Issued by NWS

Home | Current Version | Previous Version | Graphics & Text | Print | Product List | Glossary On
Versions: 1 2 3 4 5 6 7 8 9 10 11 12 13 14 15 16 17 18 19 20 21 22 23 24 25 26 27 28 29 30 31 32 33 34 35 36 37 38 39 40 41 42 43 44 45 46 47 48 49 50
000
ASUS43 KLSX 181457
RWRMO

WEATHER SUMMARY FOR MISSOURI
NATIONAL WEATHER SERVICE SPRINGFIELD MO
900 AM CST THU JAN 18 2018

NOTE: "FAIR" INDICATES FEW OR NO CLOUDS BELOW 12,000 FEET WITH NO
       SIGNIFICANT WEATHER AND/OR OBSTRUCTIONS TO VISIBILITY.
       CURRENT SKY AND/OR WEATHER CONDITIONS ARE NOT AVAILABLE FOR
       CHILLICOTHE AND FARMINGTON.

MOZ001>031-035>038-043-044-053-054-181600-
...NORTHERN AND WESTERN MISSOURI...

CITY           SKY/WX    TMP DP  RH WIND       PRES   REMARKS
KANSAS CTY INT CLOUDY    21   9  59 SW14      30.23S WCI   8
LEE`S SUMMIT   CLOUDY    22  10  60 SW15      30.26S WCI   9
ST JOSEPH      CLOUDY    20  12  71 S10       30.23S WCI   9
CHILLICOTHE      N/A     19   9  65 S9        30.26F WCI   8

$$
MOZ066>068-077>081-088>096-101>105-181600-
...SOUTHWEST MISSOURI...

CITY           SKY/WX    TMP DP  RH WIND       PRES   REMARKS
SPRINGFIELD    CLOUDY    19   8  62 S12       30.37S WCI   7
JOPLIN         CLOUDY    24   9  52 S16       30.38S WCI  11

$$
MOZ032>034-039>042-045>050-055>058-069>072-181600-
...CENTRAL MISSOURI...

CITY           SKY/WX    TMP DP  RH WIND       PRES   REMARKS
COLUMBIA       NOT AVBL
JEFFERSON CITY CLOUDY    20   9  62 E5        30.38S WCI  13
ROLLA          CLOUDY    20   8  60 SW12      30.36R WCI   8
SEDALIA        CLOUDY    24  10  55 SW16G24   30.31F WCI  11
WARRENSBURG    CLOUDY    19   9  63 S9        30.30F WCI   9

$$
MOZ051-052-059>065-181600-
...EAST CENTRAL MISSOURI...

CITY           SKY/WX    TMP DP  RH WIND       PRES   REMARKS
ST LOUIS INTL  CLOUDY    26  10  50 SW13      30.37R WCI  15

$$
MOZ072>076-082>087-097>100-106>115-181600-
...SOUTH CENTRAL AND SOUTHEAST MISSOURI...

CITY           SKY/WX    TMP DP  RH WIND       PRES   REMARKS
CAPE GIRARDEAU FAIR      16  12  84 S3        30.50R
POPLAR BLUFF   FAIR      17  13  84 SW9       30.50R WCI   6
WEST PLAINS    CLOUDY    21   9  59 W9        30.41S WCI  11

$$



USA.gov is the U.S. government's official web portal to all federal, state and local government web resources and services.